TimeMDT,TemperatureF,Dew PointF,Humidity,Sea Level PressureIn,VisibilityMPH,Wind Direction,Wind SpeedMPH,Gust SpeedMPH,PrecipitationIn,Events,Conditions,WindDirDegrees,DateUTC
12:15 AM,55.6,9.5,16,29.95,10.0,WNW,6.9,-,N/A,,Clear,300,2013-04-02 06:15:00
12:35 AM,55.9,9.3,16,29.96,10.0,West,4.6,-,N/A,,Clear,270,2013-04-02 06:35:00
12:55 AM,55.0,9.5,16,29.95,10.0,WSW,6.9,-,N/A,,Clear,250,2013-04-02 06:55:00
1:15 AM,54.5,10.0,17,29.95,10.0,West,5.8,-,N/A,,Clear,260,2013-04-02 07:15:00
1:35 AM,53.1,9.9,18,29.95,10.0,WSW,5.8,-,N/A,,Clear,250,2013-04-02 07:35:00
1:55 AM,52.0,10.2,19,29.96,10.0,SW,6.9,-,N/A,,Clear,220,2013-04-02 07:55:00
2:15 AM,53.6,11.8,19,29.95,10.0,WSW,8.1,-,N/A,,Clear,240,2013-04-02 08:15:00
2:35 AM,53.8,13.1,20,29.95,10.0,WSW,10.4,-,N/A,,Clear,250,2013-04-02 08:35:00
2:55 AM,54.1,14.0,20,29.95,10.0,West,10.4,-,N/A,,Clear,260,2013-04-02 08:55:00
3:15 AM,54.3,15.6,22,29.94,10.0,West,10.4,-,N/A,,Clear,260,2013-04-02 09:15:00
3:35 AM,53.6,15.8,22,29.94,10.0,West,9.2,-,N/A,,Clear,260,2013-04-02 09:35:00
3:55 AM,53.1,15.8,23,29.94,10.0,West,9.2,-,N/A,,Clear,260,2013-04-02 09:55:00
4:15 AM,52.3,16.2,24,29.93,10.0,West,9.2,-,N/A,,Clear,260,2013-04-02 10:15:00
4:35 AM,50.5,15.6,25,29.94,10.0,WNW,6.9,-,N/A,,Clear,290,2013-04-02 10:35:00
4:55 AM,48.0,14.9,27,29.95,10.0,Calm,Calm,-,N/A,,Clear,0,2013-04-02 10:55:00
5:15 AM,48.4,15.4,27,29.95,10.0,West,4.6,-,N/A,,Clear,280,2013-04-02 11:15:00
5:35 AM,49.1,16.7,28,29.95,10.0,WNW,3.5,-,N/A,,Clear,290,2013-04-02 11:35:00
5:55 AM,48.6,16.7,28,29.95,10.0,West,4.6,-,N/A,,Clear,280,2013-04-02 11:55:00
6:15 AM,47.3,15.6,28,29.96,10.0,WSW,4.6,-,N/A,,Clear,250,2013-04-02 12:15:00
6:35 AM,47.5,16.5,29,29.96,10.0,West,4.6,-,N/A,,Clear,270,2013-04-02 12:35:00
6:55 AM,47.3,15.6,28,29.97,10.0,WNW,9.2,-,N/A,,Clear,290,2013-04-02 12:55:00
7:15 AM,49.1,17.4,28,29.98,10.0,WNW,8.1,-,N/A,,Clear,290,2013-04-02 13:15:00
7:35 AM,49.1,17.6,29,29.99,10.0,West,8.1,-,N/A,,Clear,280,2013-04-02 13:35:00
7:55 AM,52.3,18.9,27,29.99,10.0,WSW,5.8,-,N/A,,Clear,250,2013-04-02 13:55:00
8:35 AM,56.7,20.7,25,29.99,10.0,WSW,4.6,-,N/A,,Clear,240,2013-04-02 14:35:00
8:55 AM,59.9,21.2,22,29.99,10.0,WSW,6.9,-,N/A,,Clear,240,2013-04-02 14:55:00
9:15 AM,61.9,21.4,21,29.98,10.0,WSW,8.1,-,N/A,,Clear,240,2013-04-02 15:15:00
9:35 AM,64.4,21.7,20,29.99,10.0,WSW,6.9,-,N/A,,Clear,240,2013-04-02 15:35:00
9:55 AM,66.2,22.1,19,29.99,10.0,SW,6.9,-,N/A,,Clear,220,2013-04-02 15:55:00
10:15 AM,67.5,23.0,19,29.99,10.0,WSW,8.1,-,N/A,,Clear,240,2013-04-02 16:15:00
10:35 AM,68.2,23.0,18,29.99,10.0,West,9.2,17.3,N/A,,Clear,260,2013-04-02 16:35:00
10:55 AM,68.7,23.0,18,29.98,10.0,WSW,11.5,17.3,N/A,,Clear,250,2013-04-02 16:55:00
11:15 AM,70.3,23.0,17,29.98,10.0,WSW,12.7,16.1,N/A,,Clear,250,2013-04-02 17:15:00
11:35 AM,70.7,22.8,16,29.98,10.0,WSW,13.8,24.2,N/A,,Clear,250,2013-04-02 17:35:00
11:55 AM,71.1,21.7,16,29.97,10.0,WSW,18.4,23.0,N/A,,Clear,250,2013-04-02 17:55:00
12:15 PM,72.1,21.2,15,29.96,10.0,WSW,16.1,26.5,N/A,,Clear,250,2013-04-02 18:15:00
12:35 PM,71.8,21.0,15,29.95,10.0,SW,13.8,24.2,N/A,,Clear,230,2013-04-02 18:35:00
12:55 PM,72.9,21.9,15,29.94,10.0,WSW,12.7,24.2,N/A,,Clear,240,2013-04-02 18:55:00
1:15 PM,73.8,19.6,13,29.93,10.0,West,19.6,24.2,N/A,,Clear,270,2013-04-02 19:15:00
1:35 PM,75.7,20.3,13,29.93,10.0,West,17.3,24.2,N/A,,Clear,260,2013-04-02 19:35:00
1:55 PM,75.0,19.6,12,29.91,10.0,WSW,15.0,29.9,N/A,,Clear,250,2013-04-02 19:55:00
2:15 PM,75.0,18.9,12,29.90,10.0,West,20.7,28.8,N/A,,Clear,260,2013-04-02 20:15:00
2:35 PM,75.4,18.3,12,29.90,10.0,West,13.8,28.8,N/A,,Clear,260,2013-04-02 20:35:00
2:55 PM,76.5,18.0,11,29.88,10.0,WSW,19.6,31.1,N/A,,Clear,250,2013-04-02 20:55:00
3:15 PM,76.1,17.6,11,29.88,10.0,West,24.2,28.8,N/A,,Clear,260,2013-04-02 21:15:00
3:35 PM,76.8,17.6,11,29.86,10.0,West,23.0,32.2,N/A,,Clear,260,2013-04-02 21:35:00
3:55 PM,77.0,18.3,11,29.86,10.0,West,24.2,32.2,N/A,,Clear,280,2013-04-02 21:55:00
4:15 PM,76.8,18.1,11,29.86,10.0,West,25.3,31.1,N/A,,Clear,260,2013-04-02 22:15:00
4:35 PM,75.9,16.3,11,29.85,10.0,West,31.1,34.5,N/A,,Clear,270,2013-04-02 22:35:00
4:55 PM,75.2,14.5,10,29.86,10.0,West,17.3,39.1,N/A,,Clear,270,2013-04-02 22:55:00
5:15 PM,74.7,11.8,9,29.86,10.0,West,28.8,35.7,N/A,,Clear,280,2013-04-02 23:15:00
5:35 PM,73.9,11.1,9,29.86,10.0,West,25.3,35.7,N/A,,Clear,280,2013-04-02 23:35:00
5:55 PM,73.4,10.8,9,29.86,10.0,West,25.3,36.8,N/A,,Clear,280,2013-04-02 23:55:00
6:15 PM,72.9,9.0,8,29.86,10.0,West,26.5,33.4,N/A,,Clear,280,2013-04-03 00:15:00
6:35 PM,71.8,9.1,9,29.87,10.0,West,23.0,36.8,N/A,,Clear,270,2013-04-03 00:35:00
6:55 PM,70.7,9.1,9,29.88,10.0,West,13.8,31.1,N/A,,Clear,270,2013-04-03 00:55:00
7:15 PM,70.0,8.1,9,29.88,10.0,West,20.7,27.6,N/A,,Clear,280,2013-04-03 01:15:00
7:35 PM,68.2,9.1,10,29.89,10.0,West,13.8,24.2,N/A,,Clear,280,2013-04-03 01:35:00
7:55 PM,67.1,9.5,11,29.90,10.0,West,17.3,23.0,N/A,,Clear,280,2013-04-03 01:55:00
8:15 PM,65.8,9.9,11,29.90,10.0,West,15.0,-,N/A,,Clear,280,2013-04-03 02:15:00
8:35 PM,64.8,9.7,12,29.91,10.0,WNW,11.5,-,N/A,,Clear,290,2013-04-03 02:35:00
8:55 PM,63.0,8.6,12,29.92,10.0,WNW,11.5,-,N/A,,Clear,300,2013-04-03 02:55:00
9:15 PM,62.6,8.2,12,29.92,10.0,WNW,9.2,-,N/A,,Clear,300,2013-04-03 03:15:00
9:35 PM,58.6,6.8,13,29.93,10.0,NW,9.2,-,N/A,,Clear,310,2013-04-03 03:35:00
9:55 PM,58.8,6.4,12,29.94,10.0,NW,12.7,-,N/A,,Clear,310,2013-04-03 03:55:00
10:15 PM,60.6,6.4,12,29.94,10.0,WNW,13.8,-,N/A,,Clear,290,2013-04-03 04:15:00
10:35 PM,59.5,6.6,12,29.94,10.0,WNW,11.5,-,N/A,,Clear,290,2013-04-03 04:35:00
10:55 PM,57.9,6.4,13,29.95,10.0,NW,10.4,-,N/A,,Clear,320,2013-04-03 04:55:00
11:15 PM,57.6,6.8,13,29.95,10.0,WNW,10.4,-,N/A,,Clear,300,2013-04-03 05:15:00
11:35 PM,57.2,6.8,13,29.95,10.0,West,13.8,-,N/A,,Clear,280,2013-04-03 05:35:00
11:55 PM,55.9,6.4,14,29.96,10.0,NW,8.1,-,N/A,,Clear,310,2013-04-03 05:55:00